Printer-friendly version

IAU Minor Planet Center

Minor Planet Center

MPEC 2008-W37 : 2008 WG14

The following Minor Planet Electronic Circular may be linked-to from your own Web pages, but must not otherwise be redistributed electronically.


Read MPEC 2008-W36 Read MPEC 2008-W38


M.P.E.C. 2008-W37                                Issued 2008 Nov. 21, 16:21 UT

     The Minor Planet Electronic Circulars contain information on unusual
         minor planets and routine data on comets.  They are published
   on behalf of Commission 20 of the International Astronomical Union by the
          Minor Planet Center, Smithsonian Astrophysical Observatory,
                          Cambridge, MA 02138, U.S.A.

             Prepared using the Tamkin Foundation Computer Network

                              MPC@CFA.HARVARD.EDU
          URL http://www.cfa.harvard.edu/iau/mpc.html  ISSN 1523-6714

                                   2008 WG14

Observations:
     K08W14G* C2008 11 21.22896 03 48 22.28 +14 00 54.8          19.9 V EW037G96
     K08W14G  C2008 11 21.23453 03 48 22.17 +14 01 04.6          19.9 V EW037G96
     K08W14G  C2008 11 21.24562 03 48 21.96 +14 01 23.7          19.6 V EW037G96
     K08W14G  C2008 11 21.28536 03 48 21.13 +14 02 32.8          19.7 V EW037G96
     K08W14G  C2008 11 21.28624 03 48 21.13 +14 02 34.6          19.7 V EW037G96
     K08W14G  C2008 11 21.28713 03 48 21.09 +14 02 35.8          19.9 V EW037G96
     K08W14G  C2008 11 21.31867 03 48 20.35 +14 03 30.0          20.4 R EW037854
     K08W14G  C2008 11 21.32825 03 48 20.19 +14 03 48.2          20.4 R EW037854
     K08W14G  C2008 11 21.33784 03 48 19.95 +14 04 05.6          20.4 R EW037854
     K08W14G  C2008 11 21.34232 03 48 18.84 +14 03 58.3          19.7 R EW037H36
     K08W14G  C2008 11 21.34717 03 48 18.77 +14 04 07.2          20.0 R EW037H36
     K08W14G  C2008 11 21.36094 03 48 18.58 +14 04 29.5          19.8 R EW037H36
     K08W14G  C2008 11 21.37743 03 48 19.23 +14 05 09.2          19.7 V EW037G96
     K08W14G  C2008 11 21.37799 03 48 19.21 +14 05 10.1          19.8 V EW037G96
     K08W14G  C2008 11 21.37852 03 48 19.22 +14 05 11.3          20.0 V EW037G96
     K08W14G  C2008 11 21.37906 03 48 19.20 +14 05 12.1          19.9 V EW037G96
     K08W14G  C2008 11 21.44902 03 48 18.25 +14 07 08.5          19.9 V EW037G96
     K08W14G  C2008 11 21.45031 03 48 18.25 +14 07 10.8          20.0 V EW037G96
     K08W14G  C2008 11 21.45161 03 48 18.21 +14 07 12.7          19.9 V EW037G96
     K08W14G  C2008 11 21.45291 03 48 18.25 +14 07 14.9          19.9 V EW037G96

Observer details:
854 Sabino Canyon Observatory, Tucson.  Observer J. E. McGaha.  0.36-m f/10.0
    Schmidt-Cassegrain + CCD.
G96 Mt. Lemmon Survey.  Observer A. R. Gibbs.  Measurers E. C. Beshore,
    A. Boattini, G. J. Garradd, A. R. Gibbs, A. D. Grauer, R. E. Hill,
    R. A. Kowalski, S. M. Larson, R. H. McNaught.  1.5-m reflector + CCD.
H36 Sandlot Observatory, Scranton.  Observer G. Hug.  0.56-m reflector + CCD.

Orbital elements:
2008 WG14                                                Earth MOID = 0.0205 AU
Epoch 2008 Nov. 30.0 TT = JDT 2454800.5                 MPC
M 332.72994              (2000.0)            P               Q
n   0.59586099     Peri.   53.24537     -0.50190393     -0.86286169
a   1.3986404      Node    66.98354     +0.77145221     -0.47779866
e   0.3240489      Incl.    3.71801     +0.39109324     -0.16485798
P   1.65           H   24.5           G   0.15           U   9
Residuals in seconds of arc
081121 G96  0.0   0.1+    081121 854  0.1-  1.4+    081121 G96  0.3+  0.2-
081121 G96  0.1-  0.1+    081121 854  0.6-  2.5+    081121 G96  0.2+  0.3-
081121 G96  0.0   0.3-    081121 H36  0.4+  0.9-    081121 G96  0.2-  0.1+
081121 G96  0.0   0.3-    081121 H36  0.4+  0.1-    081121 G96  0.0   0.2+
081121 G96  0.3+  0.0     081121 H36  0.3+  0.7-    081121 G96  0.5-  0.0
081121 G96  0.0   0.3-    081121 G96  0.2+  0.4-    081121 G96  0.2+  0.1+
081121 854  0.8-  0.5-    081121 G96  0.0   0.5-

Ephemeris:
2008 WG14                a,e,i = 1.40, 0.32, 4                   q = 0.9454
Date    TT    R. A. (2000) Decl.     Delta      r     Elong.  Phase     V
2008 11 20    03 48.10   +13 28.4    0.101    1.088   173.6     5.8    20.2
2008 11 21    03 48.29   +13 55.0    0.0963   1.084   174.0     5.5    20.0
2008 11 22    03 48.49   +14 24.2    0.0921   1.079   174.2     5.3    19.9
2008 11 23    03 48.71   +14 56.5    0.0880   1.075   174.4     5.2    19.8
2008 11 24    03 48.96   +15 32.3    0.0839   1.071   174.4     5.2    19.7
2008 11 25    03 49.24   +16 12.0    0.0798   1.067   174.3     5.3    19.6
2008 11 26    03 49.56   +16 56.1    0.0758   1.062   174.1     5.5    19.5
2008 11 27    03 49.93   +17 45.3    0.0719   1.058   173.8     5.8    19.4
2008 11 28    03 50.36   +18 40.3    0.0680   1.054   173.3     6.2    19.3
2008 11 29    03 50.88   +19 42.0    0.0642   1.050   172.8     6.8    19.2
2008 11 30    03 51.50   +20 51.7    0.0604   1.046   172.1     7.4    19.0
2008 12 01    03 52.24   +22 10.5    0.0567   1.042   171.4     8.1    18.9
2008 12 02    03 53.14   +23 40.2    0.0531   1.038   170.5     9.0    18.8
2008 12 03    03 54.24   +25 22.8    0.0495   1.034   169.5    10.0    18.7
2008 12 04    03 55.60   +27 21.0    0.0461   1.031   168.2    11.2    18.6
2008 12 05    03 57.28   +29 37.9    0.0427   1.027   166.7    12.7    18.5
2008 12 06    03 59.42   +32 17.6    0.0394   1.023   164.9    14.5    18.3
2008 12 07    04 02.16   +35 25.1    0.0362   1.020   162.7    16.7    18.2
2008 12 08    04 05.78   +39 06.5    0.0332   1.016   160.0    19.4    18.1
2008 12 09    04 10.70   +43 29.3    0.0304   1.013   156.6    22.8    18.0
2008 12 10    04 17.69   +48 41.4    0.0278   1.009   152.3    26.9    17.9
2008 12 11    04 28.28   +54 49.8    0.0255   1.006   147.1    32.1    17.9
2008 12 12    04 45.89   +61 57.0    0.0236   1.003   140.8    38.4    17.9
2008 12 13    05 19.98   +69 50.8    0.0221   1.000   133.3    45.8    18.0
2008 12 14    06 43.86   +77 30.5    0.0212   0.997   124.9    54.1    18.1
2008 12 15    10 14.86   +80 36.1    0.0209   0.994   116.0    62.9    18.3
2008 12 16    13 02.46   +75 09.9    0.0213   0.991   107.2    71.7    18.6
2008 12 17    14 03.46   +67 07.2    0.0223   0.988    98.9    79.8    19.0
2008 12 18    14 30.57   +59 18.7    0.0238   0.985    91.7    86.9    19.4
2008 12 19    14 45.50   +52 22.7    0.0258   0.982    85.6    92.9    19.8
2008 12 20    14 54.91   +46 25.7    0.0280   0.980    80.6    97.8    20.2

Timothy B. Spahr             (C) Copyright 2008 MPC           M.P.E.C. 2008-W37

Read MPEC 2008-W36 Read MPEC 2008-W38


Our Web policy. Index to the CBAT/MPC/ICQ pages.


Valid HTML 4.01!